#timestamp,LO_Frequency,Hit 
1498255215.1,286046970.0,N
1498255216.0,286046970.0,N
1498255235.8,286046971.9,N
1498255255.7,286046969.4,N
1498255275.5,286046969.5,N
1498255295.3,286046969.6,N
1498255315.1,286046972.4,N
1498255335.9,286046972.4,N
1498255355.7,286046971.0,N
1498255375.5,286046971.1,N
1498255395.4,286046971.0,N
1498255415.2,286046973.9,N
1498255435.0,286046973.1,N
1498255435.9,286046973.1,N
1498255455.8,286046971.3,N
1498255475.6,286046971.2,N
1498255495.4,286046971.8,N
1498255515.3,286046971.8,N
1498255535.1,286046974.0,N
1498255536.0,286046974.0,N
1498255555.8,286046973.2,N
1498255575.7,286046973.1,N
1498255595.5,286046975.6,N
1498255615.3,286046972.7,N
1498255635.1,286046972.9,N
1498255655.9,286046972.6,N
1498255675.7,286046973.5,N
1498255695.5,286046973.1,N
1498255715.4,286046976.7,N
1498255735.2,286046976.7,N
1498255755.0,286046975.0,N
1498255755.9,286046975.0,N
1498255775.8,286046975.0,N
1498255795.6,286046975.2,N
1498255815.4,286046974.5,N
1498255835.3,286046975.3,N
1498255855.1,286046974.2,N
1498255856.0,286046974.2,N
1498255875.8,286046976.0,N
1498255895.6,286046974.3,N
1498255915.5,286046975.1,N
1498255935.3,286046975.4,N
1498255955.1,286046977.2,N
1498255975.9,286046977.1,N
1498255995.7,286046974.5,N
1498256015.5,286046976.3,N
1498256035.4,286046978.8,N
1498256055.2,286046978.3,N
1498256075.0,286046977.5,N
1498256075.9,286046977.5,N
1498256095.8,286046980.0,N
1498256115.6,286046977.5,N
1498256135.4,286046977.9,N
1498256155.2,286046979.7,N
1498256175.1,286046981.2,N
1498256176.0,286046981.2,N
1498256195.8,286046983.2,N
1498256215.6,286046983.6,N
1498256235.5,286046982.9,N
1498256255.3,286046983.5,N
1498256275.1,286046983.1,N
1498256295.9,286046983.5,N
1498256315.7,286046985.2,N
1498256335.5,286046982.6,N
1498256355.4,286046982.7,N
1498256375.2,286046983.0,N
1498256395.0,286046983.5,N
1498256395.9,286046983.5,N
1498256415.8,286046983.4,N
1498256435.6,286046982.5,N
1498256455.4,286046982.8,N
1498256475.3,286046986.6,N
1498256495.1,286046984.2,N
1498256496.0,286046984.2,N
1498256515.8,286046985.6,N
1498256535.6,286046986.5,N
1498256555.5,286046984.1,N
1498256575.3,286046986.7,N
1498256595.1,286046986.5,N
1498256615.9,286046983.9,N
1498256635.7,286046984.1,N
1498256655.5,286046986.5,N
1498256675.4,286046985.4,N
1498256695.2,286046986.4,N
1498256715.0,286046985.4,N
1498256715.9,286046985.4,N
1498256735.8,286046988.1,N
1498256755.6,286046987.1,N
1498256775.4,286046987.9,N
1498256795.3,286046987.1,N
1498256815.1,286046988.0,N
1498256816.0,286046988.0,N
1498256835.8,286046985.8,N
1498256855.6,286046988.4,N
1498256875.5,286046985.8,N
1498256895.3,286046988.3,N
1498256915.1,286046987.8,N
1498256935.9,286046990.0,N
1498256955.7,286046989.4,N
1498256975.5,286046989.3,N
1498256995.4,286046989.4,N
1498257015.2,286046989.5,N
1498257035.0,286046986.9,N
1498257035.9,286046986.9,N
1498257055.8,286046989.9,N
1498257075.6,286046989.0,N
1498257095.4,286046989.3,N
1498257115.2,286046991.6,N
1498257135.1,286046988.9,N
1498257136.0,286046988.9,N
1498257155.8,286046989.1,N
1498257175.6,286046988.8,N
1498257195.5,286046989.2,N
1498257215.3,286046988.7,N
1498257235.1,286046989.0,N
1498257255.9,286046988.6,N
1498257275.7,286046988.6,N
1498257295.5,286046989.1,N
1498257315.4,286046991.6,N
1498257335.2,286046988.7,N
1498257355.0,286046988.9,N
1498257355.9,286046988.9,N
1498257375.8,286046989.3,N
1498257395.6,286046989.6,N
1498257415.4,286046989.3,N
1498257435.2,286046990.9,N
1498257455.1,286046991.3,N
1498257456.0,286046991.3,N
1498257475.8,286046991.6,N
1498257495.6,286046988.7,N
1498257515.5,286046992.8,N
1498257535.3,286046991.9,N
1498257555.1,286046994.2,N
1498257575.9,286046992.0,N
1498257595.7,286046993.5,N
1498257615.5,286046994.8,N
1498257635.4,286046994.6,N
1498257655.2,286046994.1,N
1498257675.0,286046993.6,N
1498257675.9,286046993.6,N
1498257695.8,286046993.3,N
1498257715.6,286046995.0,N
1498257735.4,286046997.7,N
1498257755.2,286046997.0,N
1498257775.1,286046996.8,N
1498257776.0,286046996.8,N
1498257795.8,286046996.5,N
1498257815.6,286046997.2,N
1498257835.5,286046997.9,N
1498257855.3,286046997.6,N
1498257875.1,286046994.9,N
1498257895.9,286046997.8,N
1498257915.7,286046996.8,N
1498257935.5,286046997.3,N
1498257955.4,286046999.5,N
1498257975.2,286047001.2,N
1498257995.0,286046998.1,N
1498257995.9,286046998.1,N
1498258015.8,286046998.2,N
1498258035.6,286047000.0,N
1498258055.4,286047000.3,N
1498258075.2,286047000.0,N
1498258095.1,286047000.3,N
1498258096.0,286047000.3,N
1498258115.8,286046999.9,N
1498258135.6,286046999.9,N
1498258155.5,286047002.3,N
1498258175.3,286046999.9,N
1498258195.1,286046999.9,N
1498258215.9,286047000.5,N
1498258235.7,286047000.6,N
1498258255.5,286047002.8,N
1498258275.4,286047000.3,N
1498258295.2,286047001.6,N
1498258315.0,286047001.8,N
1498258315.9,286047001.8,N
1498258335.8,286047004.0,N
1498258355.6,286047006.6,N
1498258375.4,286047006.2,N
1498258395.2,286047007.3,N
1498258415.1,286047004.8,N
1498258416.0,286047004.8,N
1498258435.8,286047003.2,N
1498258455.6,286047005.9,N
1498258475.5,286047004.6,N
1498258495.3,286047007.0,N
1498258515.1,286047006.4,N
1498258535.9,286047004.8,N
1498258555.7,286047007.3,N
1498258575.5,286047006.7,N
1498258595.4,286047008.9,N
1498258615.2,286047010.8,N
1498258635.0,286047009.9,N
1498258635.9,286047009.9,N
1498258655.7,286047010.6,N
1498258675.6,286047010.1,N
1498258695.4,286047010.4,N
1498258715.2,286047007.7,N
1498258735.1,286047010.3,N
1498258736.0,286047010.3,N
1498258755.8,286047007.8,N
1498258775.6,286047008.1,N
1498258795.5,286047008.1,N
